Date String (YYYY-MM-DD hh:mm:ss) UTC,Instrument flags,absolute air pressure of the measurement (hPa),sample flow rate (lpm),inlet stack bypass flow (lpm),air temperature of the measurement (°C),ambient temperature measured by the external sensor (°C),aerosol sample conditioner tube jacket temperature (°C),OPC LED temperature (°C),internal box temperature (°C),relative humidity of the measurement (%),span deviation,mass concentration of particles derived from Lorenz-Mie calculation of OPC scattering (μg/m³),mass concentration of particles derived from Lorenz-Mie calculation of OPC scattering (μg/m³),mass concentration of particles derived from Lorenz-Mie calculation of OPC scattering (μg/m³)
DateTimeUTC,F1_M11,P_M11,Q1_M11,Q2_M11,T1_M11,T2_M11,T3_M11,T4_M11,T5_M11,U1_M11,ZSPAN_M11,X2_M11,X0_M11,X1_M11
2023-09-10 23:00:00,SystemResetWarning,0837.8,5.01,000.00,030.1,024.7,000.0,037.8,030.2,32.9,-000.2,0015.74,0028.59,0014.26
2023-09-10 23:01:00,SystemResetWarning,0837.8,5.01,000.00,029.9,024.8,000.0,037.8,030.1,33.1,-000.3,0015.76,0028.52,0014.30
2023-09-10 23:02:00,SystemResetWarning,0837.7,5.00,000.00,029.8,025.2,000.0,037.8,030.0,33.3,-000.4,0015.77,0028.37,0014.29
2023-09-10 23:03:00,SystemResetWarning,0837.7,4.99,000.00,029.7,025.5,000.0,037.8,030.0,33.5,-000.3,0015.80,0028.20,0014.26
2023-09-10 23:04:00,SystemResetWarning,0837.7,5.00,000.00,029.6,025.9,000.0,037.8,030.0,33.6,-000.2,0015.86,0029.05,0014.27
2023-09-10 23:05:00,SystemResetWarning,0837.7,5.00,000.00,029.6,026.2,000.0,037.8,030.1,33.5,-000.2,0015.88,0028.98,0014.28
2023-09-10 23:06:00,SystemResetWarning,0837.7,5.00,000.00,029.6,026.5,000.0,037.8,030.2,33.6,-000.4,0015.86,0028.51,0014.28
2023-09-10 23:07:00,SystemResetWarning,0837.7,4.99,000.00,029.5,026.7,000.0,037.8,030.2,33.6,-000.3,0015.89,0028.42,0014.29
2023-09-10 23:08:00,SystemResetWarning,0837.7,4.99,000.00,029.5,026.9,000.0,037.8,030.3,33.6,-000.3,0015.90,0027.67,0014.30
2023-09-10 23:09:00,SystemResetWarning,0837.7,5.01,000.00,029.5,027.1,000.0,037.8,030.3,33.5,-000.2,0015.95,0027.76,0014.31
2023-09-10 23:10:00,SystemResetWarning,0837.7,5.01,000.00,029.5,027.2,000.0,037.7,030.3,33.6,-000.3,0016.01,0027.26,0014.36
2023-09-10 23:11:00,SystemResetWarning,0837.8,4.99,000.00,029.5,027.3,000.0,037.7,030.4,33.5,-000.3,0016.15,0027.24,0014.44
2023-09-10 23:12:00,SystemResetWarning,0837.8,4.99,000.00,029.5,027.4,000.0,037.7,030.4,33.3,-000.3,0016.32,0027.65,0014.55
2023-09-10 23:13:00,SystemResetWarning,0837.8,5.00,000.00,029.5,027.5,000.0,037.7,030.5,33.2,-000.3,0016.50,0027.66,0014.70
2023-09-10 23:14:00,SystemResetWarning,0837.8,5.01,000.00,029.5,027.6,000.0,037.7,030.5,33.2,-000.2,0016.64,0027.79,0014.86
2023-09-10 23:15:00,SystemResetWarning,0837.7,5.00,000.00,029.5,027.6,000.0,037.7,030.5,33.2,-000.3,0016.81,0027.59,0015.04
2023-09-10 23:16:00,SystemResetWarning,0837.8,5.00,000.00,029.5,027.7,000.0,037.7,030.6,33.3,-000.5,0017.01,0028.13,0015.18
2023-09-10 23:17:00,SystemResetWarning,0837.8,5.00,000.00,029.5,027.7,000.0,037.8,030.6,33.3,-000.3,0017.18,0029.27,0015.34
2023-09-10 23:18:00,SystemResetWarning,0837.8,5.00,000.00,029.5,027.8,000.0,037.8,030.7,33.3,-000.4,0017.33,0029.50,0015.46
2023-09-10 23:19:00,SystemResetWarning,0837.8,5.00,000.00,029.6,027.8,000.0,037.8,030.8,33.4,-000.4,0017.52,0029.85,0015.56
2023-09-10 23:20:00,SystemResetWarning,0837.8,5.01,000.00,029.6,027.8,000.0,037.8,030.8,33.4,-000.3,0017.55,0030.64,0015.62
2023-09-10 23:21:00,SystemResetWarning,0837.8,5.00,000.00,029.6,027.9,000.0,037.8,030.8,33.4,-000.3,0017.62,0030.91,0015.64
2023-09-10 23:22:00,SystemResetWarning,0837.8,4.99,000.00,029.6,027.7,000.0,037.8,030.8,33.5,-000.3,0017.66,0031.52,0015.66
2023-09-10 23:23:00,SystemResetWarning,0837.7,4.99,000.00,029.6,026.2,000.0,037.7,030.5,33.5,-000.3,0017.58,0031.56,0015.62
2023-09-10 23:24:00,SystemResetWarning,0837.7,5.01,000.00,029.5,025.0,000.0,037.6,030.2,33.8,-000.2,0017.51,0031.65,0015.58
2023-09-10 23:25:00,SystemResetWarning,0837.6,5.00,000.00,029.3,024.7,000.0,037.5,030.0,33.9,-000.3,0017.60,0031.92,0015.62
2023-09-10 23:26:00,SystemResetWarning,0837.6,5.01,000.00,029.2,025.0,000.0,037.5,029.9,34.3,-000.1,0017.79,0032.22,0015.70
2023-09-10 23:27:00,SystemResetWarning,0837.6,5.00,000.00,029.1,025.3,000.0,037.5,029.9,34.4,0000.3,0017.79,0031.75,0015.76
2023-09-10 23:28:00,SystemResetWarning,0837.7,4.99,000.00,029.0,025.7,000.0,037.5,029.9,34.5,0000.2,0017.86,0030.72,0015.80
2023-09-10 23:29:00,SystemResetWarning,0837.8,4.99,000.00,029.0,026.0,000.0,037.5,030.0,34.5,0000.2,0017.98,0030.73,0015.91
2023-09-10 23:30:00,SystemResetWarning,0837.8,5.00,000.00,029.0,026.3,000.0,037.5,030.0,34.6,0000.4,0017.96,0030.45,0015.95
2023-09-10 23:31:00,SystemResetWarning,0837.8,5.01,000.00,029.0,026.6,000.0,037.4,030.1,34.6,0000.3,0018.03,0030.16,0015.95
2023-09-10 23:32:00,SystemResetWarning,0838.0,5.00,000.00,029.0,026.8,000.0,037.4,030.1,34.7,0000.2,0017.87,0029.19,0015.78
2023-09-10 23:33:00,SystemResetWarning,0837.9,5.01,000.00,029.0,027.0,000.0,037.4,030.2,34.6,0000.1,0017.46,0028.04,0015.39
2023-09-10 23:34:00,SystemResetWarning,0837.9,5.00,000.00,029.0,027.1,000.0,037.4,030.2,34.6,0000.2,0016.95,0026.62,0014.88
2023-09-10 23:35:00,SystemResetWarning,0838.0,5.00,000.00,029.0,027.2,000.0,037.4,030.3,34.7,0000.2,0016.25,0025.32,0014.25
2023-09-10 23:36:00,SystemResetWarning,0838.1,5.00,000.00,029.0,027.3,000.0,037.4,030.3,34.7,0000.4,0015.41,0023.95,0013.49
2023-09-10 23:37:00,SystemResetWarning,0838.0,5.00,000.00,029.0,027.4,000.0,037.4,030.4,34.8,0000.3,0014.33,0022.38,0012.56
2023-09-10 23:38:00,SystemResetWarning,0838.0,5.00,000.00,029.0,027.5,000.0,037.4,030.4,34.8,-000.1,0013.42,0021.24,0011.71
2023-09-10 23:39:00,SystemResetWarning,0838.0,5.00,000.00,029.1,027.6,000.0,037.4,030.4,34.7,-000.1,0012.62,0020.29,0010.93
2023-09-10 23:40:00,SystemResetWarning,0837.9,5.00,000.00,029.1,027.6,000.0,037.4,030.4,34.7,0000.0,0011.67,0018.97,0010.03
2023-09-10 23:41:00,SystemResetWarning,0837.9,5.00,000.00,029.1,027.7,000.0,037.4,030.5,34.5,-000.3,0010.77,0017.70,0009.19
2023-09-10 23:42:00,SystemResetWarning,0838.0,5.00,000.00,029.1,027.7,000.0,037.4,030.5,34.5,-000.2,0009.96,0016.44,0008.47
2023-09-10 23:43:00,SystemResetWarning,0838.0,5.00,000.00,029.1,027.8,000.0,037.4,030.6,34.4,-000.2,0009.12,0015.14,0007.77
2023-09-10 23:44:00,SystemResetWarning,0838.0,5.00,000.00,029.1,027.8,000.0,037.4,030.6,34.3,0000.1,0008.49,0014.12,0007.26
2023-09-10 23:45:00,SystemResetWarning,0837.9,5.00,000.00,029.2,027.9,000.0,037.5,030.6,34.3,0000.2,0007.96,0013.44,0006.85
2023-09-10 23:46:00,SystemResetWarning,0837.9,4.98,000.00,029.2,027.0,000.0,037.4,030.5,34.3,0000.1,0007.60,0013.00,0006.56
2023-09-10 23:47:00,SystemResetWarning,0838.0,5.00,000.00,029.1,025.3,000.0,037.3,030.1,34.5,0000.1,0007.30,0012.56,0006.32
2023-09-10 23:48:00,SystemResetWarning,0838.0,5.01,000.00,029.0,024.7,000.0,037.3,030.0,34.8,0000.1,0007.07,0012.11,0006.14
2023-09-10 23:49:00,SystemResetWarning,0837.9,4.99,000.00,028.9,024.8,000.0,037.2,029.9,35.2,0000.3,0006.79,0011.61,0005.92
2023-09-10 23:50:00,SystemResetWarning,0837.9,5.02,000.00,029.0,025.1,000.0,037.2,029.9,35.2,0000.3,0006.50,0011.05,0005.72
2023-09-10 23:51:00,SystemResetWarning,0838.0,4.99,000.00,029.2,025.5,000.0,037.2,030.0,34.8,0000.4,0006.21,0010.53,0005.53
2023-09-10 23:52:00,SystemResetWarning,0837.9,4.99,000.00,029.4,025.9,000.0,037.2,030.1,34.4,0000.4,0005.95,0010.11,0005.34
2023-09-10 23:53:00,SystemResetWarning,0838.0,5.01,000.00,029.5,026.2,000.0,037.3,030.2,34.3,0000.3,0005.73,0009.71,0005.20
2023-09-10 23:54:00,SystemResetWarning,0838.1,5.01,000.00,029.5,026.5,000.0,037.3,030.2,34.1,0000.6,0005.58,0009.48,0005.07
2023-09-10 23:55:00,SystemResetWarning,0838.1,4.99,000.00,029.6,026.7,000.0,037.4,030.2,33.9,0000.7,0005.47,0009.31,0004.98
2023-09-10 23:56:00,SystemResetWarning,0838.1,5.00,000.00,029.6,026.9,000.0,037.4,030.3,33.8,0000.5,0005.35,0009.04,0004.87
2023-09-10 23:57:00,SystemResetWarning,0838.1,5.00,000.00,029.6,027.1,000.0,037.5,030.3,33.6,0000.3,0005.27,0008.85,0004.79
2023-09-10 23:58:00,SystemResetWarning,0838.0,5.00,000.00,029.7,027.2,000.0,037.5,030.4,33.6,0000.5,0005.18,0008.68,0004.71
2023-09-10 23:59:00,SystemResetWarning,0838.0,5.01,000.00,029.7,027.3,000.0,037.6,030.4,33.8,0000.6,0005.16,0008.62,0004.67
